Back to catalog

METEOR 2-8 DEB

AlivePO
NORAD 36323·DEBRIS·🇷🇺 Russia

Launched Mar 25, 1982 from Plesetsk Cosmodrome

Loading…

Next Passes (next 24 hours)

TLE

FreshSource: Space-Track

Epoch: Sep 11, 2026, 10:07 UTC

1 36323U 82025H   26254.42206693  .00002977  00000-0  11779-2 0  9997
2 36323  82.5308 147.6081 0014268 159.7524 200.4230 14.28637466910857

Track METEOR 2-8 DEB in real time with AllMySat

Download on the App Store